TimeEST,TemperatureF,Dew PointF,Humidity,Sea Level PressureIn,VisibilityMPH,Wind Direction,Wind SpeedMPH,Gust SpeedMPH,PrecipitationIn,Events,Conditions,WindDirDegrees,DateUTC
12:53 AM,37.4,30.2,75,30.04,10.0,SW,21.9,29.9,N/A,,Scattered Clouds,220,2012-12-31 05:53:00
12:55 AM,37.9,30.0,73,30.06,10.0,SW,25.3,32.2,N/A,,Scattered Clouds,220,2012-12-31 05:55:00
1:55 AM,37.9,28.9,70,30.03,10.0,SSW,19.6,29.9,N/A,,Clear,210,2012-12-31 06:55:00
2:55 AM,37.9,28.0,68,30.00,10.0,SW,25.3,32.2,N/A,,Clear,220,2012-12-31 07:55:00
3:55 AM,37.9,28.0,68,29.99,10.0,SW,20.7,33.4,N/A,,Clear,230,2012-12-31 08:55:00
4:55 AM,37.9,27.0,65,29.96,10.0,WSW,20.7,32.2,N/A,,Clear,240,2012-12-31 09:55:00
5:55 AM,37.9,27.0,65,29.97,10.0,WSW,23.0,35.7,N/A,,Partly Cloudy,240,2012-12-31 10:55:00
6:55 AM,37.9,26.1,62,29.96,10.0,WSW,23.0,32.2,N/A,,Mostly Cloudy,240,2012-12-31 11:55:00
7:50 AM,37.4,26.6,65,29.94,10.0,West,18.4,-,N/A,,Mostly Cloudy,260,2012-12-31 12:50:00
7:55 AM,37.0,26.1,65,29.96,10.0,WSW,17.3,26.5,N/A,,Mostly Cloudy,250,2012-12-31 12:55:00
8:55 AM,37.0,27.0,67,29.96,10.0,West,11.5,-,N/A,,Overcast,270,2012-12-31 13:55:00
9:55 AM,36.0,26.1,67,29.97,10.0,West,15.0,21.9,N/A,,Overcast,280,2012-12-31 14:55:00
10:55 AM,35.1,26.1,70,29.99,10.0,West,15.0,23.0,N/A,,Overcast,280,2012-12-31 15:55:00
11:55 AM,34.0,25.0,70,29.99,10.0,West,13.8,-,N/A,,Overcast,280,2012-12-31 16:55:00
12:55 PM,32.0,24.1,73,29.96,7.0,WNW,13.8,-,N/A,,Overcast,300,2012-12-31 17:55:00
1:26 PM,30.2,24.8,80,29.94,6.0,NW,13.8,18.4,N/A,,Haze,310,2012-12-31 18:26:00
1:55 PM,30.0,24.1,79,29.97,5.0,NW,12.7,18.4,N/A,,Haze,310,2012-12-31 18:55:00
2:55 PM,30.0,24.1,79,29.98,6.0,WNW,13.8,18.4,N/A,,Haze,290,2012-12-31 19:55:00
3:55 PM,30.0,21.9,72,30.00,7.0,NW,12.7,-,N/A,,Overcast,310,2012-12-31 20:55:00
4:55 PM,30.0,21.0,69,30.01,8.0,WNW,9.2,17.3,N/A,,Overcast,300,2012-12-31 21:55:00
5:55 PM,28.9,19.9,69,30.03,10.0,WNW,9.2,17.3,N/A,,Overcast,300,2012-12-31 22:55:00
6:55 PM,28.9,19.0,67,30.05,10.0,WNW,10.4,-,N/A,,Overcast,300,2012-12-31 23:55:00
7:55 PM,27.0,18.0,69,30.06,10.0,NW,15.0,20.7,N/A,,Overcast,320,2013-01-01 00:55:00
8:55 PM,27.0,16.0,63,30.07,10.0,North,8.1,-,N/A,,Overcast,350,2013-01-01 01:55:00
9:43 PM,26.6,17.6,69,30.05,10.0,North,8.1,-,N/A,,Overcast,350,2013-01-01 02:43:00
9:55 PM,26.6,15.8,64,30.05,10.0,North,8.1,-,N/A,,Overcast,350,2013-01-01 02:55:00
10:55 PM,27.0,15.1,61,30.08,10.0,North,6.9,-,N/A,,Overcast,10,2013-01-01 03:55:00
11:55 PM,26.1,16.0,66,30.09,10.0,NNE,4.6,-,N/A,,Overcast,20,2013-01-01 04:55:00